GW4309 Weather Reports


time (UTC)temp
C
wind
direction
speed
KPH
gust
KPH
rain 1hr
cm
rain 24hr
cm
rain mn
cm
humidity
%
barometer
mb
20260507071647 8 247 0.0 0.0 0.00 0.05 0.05 99 1004.6
20260507071143 8 272 0.0 0.0 0.00 0.05 0.05 99 1004.5
20260507070640 8 259 0.0 0.0 0.00 0.05 0.05 99 1004.5
20260507070137 8 253 0.0 0.0 0.00 0.05 0.05 99 1004.7
20260507065633 8 246 0.0 0.0 0.00 0.05 0.05 99 1004.3
20260507065130 8 246 0.0 0.0 0.00 0.05 0.05 99 1004.2
20260507064628 8 251 0.0 0.0 0.00 0.05 0.05 99 1004.2
20260507064127 8 256 0.0 0.0 0.00 0.05 0.05 99 1004.0
20260507063624 8 257 0.0 0.0 0.00 0.05 0.05 99 1003.8
20260507063121 8 259 0.0 0.0 0.00 0.05 0.05 99 1004.1
20260507062617 8 252 0.0 0.0 0.00 0.05 0.05 99 1004.0
20260507062115 8 252 0.0 0.0 0.00 0.05 0.05 99 1003.9
20260507061613 8 257 0.0 0.0 0.00 0.05 0.05 99 1003.8
20260507061111 8 263 0.0 0.0 0.00 0.05 0.05 99 1004.0
20260507060608 8 258 0.0 0.0 0.00 0.05 0.05 99 1003.5
20260507060104 8 259 0.0 0.0 0.00 0.05 0.05 99 1003.8
20260507055600 8 256 0.0 0.0 0.00 0.05 0.05 99 1003.8
20260507055056 8 257 0.0 0.0 0.00 0.05 0.05 99 1003.6
20260507054552 8 259 0.0 0.0 0.00 0.05 0.05 99 1003.5
20260507054049 8 274 0.0 0.0 0.00 0.05 0.05 99 1003.4
20260507053547 8 272 0.0 0.0 0.00 0.05 0.05 99 1003.7
20260507053046 8 266 0.0 0.0 0.00 0.05 0.05 99 1003.5
20260507052543 8 256 0.0 0.0 0.00 0.05 0.05 99 1003.6
20260507052039 8 259 0.0 0.0 0.00 0.05 0.05 99 1003.4
20260507051537 8 257 0.0 0.0 0.00 0.05 0.05 99 1003.5
20260507051034 9 241 0.0 0.0 0.00 0.05 0.05 99 1003.4
20260507050530 9 252 0.0 0.0 0.00 0.05 0.05 99 1003.4
20260507050027 9 277 0.0 0.0 0.00 0.05 0.05 99 1003.4
20260507045524 9 232 0.0 0.0 0.00 0.05 0.05 99 1003.4
20260507045021 9 290 0.0 0.0 0.00 0.05 0.05 99 1003.3
20260507044518 9 279 0.0 0.0 0.00 0.05 0.05 99 1003.7
20260507044014 9 276 0.0 0.0 0.00 0.05 0.05 99 1003.6
20260507043510 10 254 0.0 0.0 0.13 0.05 0.05 99 1003.6
20260507043008 10 261 0.0 0.0 0.13 0.05 0.05 99 1003.2
20260507042503 10 307 0.0 0.0 0.00 0.03 0.03 99 1003.3
20260507041959 10 264 0.0 0.0 0.00 0.03 0.03 99 1003.5
20260507041456 10 236 0.0 0.0 0.00 0.03 0.03 99 1003.9
20260507040953 10 241 0.0 0.0 0.18 0.03 0.03 99 1003.9
20260507040449 10 270 0.0 0.0 0.30 0.03 0.03 99 1003.6
20260507035945 11 283 1.6 1.6 0.61 1.24 1.24 99 1003.5
20260507035442 11 254 0.0 0.0 0.79 1.24 1.24 99 1003.5
20260507034939 11 268 0.0 0.0 0.18 1.14 1.14 99 1003.5
20260507034435 11 268 0.0 0.0 0.00 1.12 1.12 99 1003.2
20260507033934 11 302 0.0 0.0 0.00 1.12 1.12 99 1002.8
20260507033431 11 235 0.0 0.0 0.00 1.12 1.12 99 1002.9
20260507032928 12 301 0.0 0.0 0.00 1.12 1.12 99 1003.0
20260507032425 12 284 0.0 0.0 0.13 1.12 1.12 99 1002.8
20260507031921 12 229 0.0 0.0 0.13 1.12 1.12 99 1002.7
20260507031418 13 213 0.0 0.0 0.00 1.09 1.09 99 1002.5
20260507030914 13 269 0.0 0.0 0.00 1.09 1.09 99 1002.3
20260507030412 13 256 0.0 0.0 0.00 1.09 1.09 99 1002.5
20260507025908 13 251 0.0 0.0 0.00 1.09 1.09 99 1002.4
20260507025406 13 255 0.0 0.0 0.00 1.09 1.09 99 1002.4
20260507024904 13 242 0.0 0.0 0.00 1.09 1.09 99 1002.3
20260507024400 13 229 0.0 0.0 0.00 1.09 1.09 99 1002.5
20260507023856 13 246 0.0 0.0 0.18 1.09 1.09 99 1002.2
20260507023353 13 251 0.0 0.0 0.18 1.09 1.09 99 1002.3
20260507022851 13 246 0.0 0.0 0.00 1.07 1.07 99 1002.4
20260507022347 13 245 0.0 0.0 0.00 1.07 1.07 99 1002.4
20260507021843 13 255 0.0 0.0 0.00 1.07 1.07 99 1002.3
20260507021338 13 255 0.0 0.0 0.00 1.07 1.07 99 1002.3
20260507020837 13 250 0.0 0.0 0.00 1.07 1.07 99 1002.1
20260507020333 13 238 0.0 0.0 0.00 1.07 1.07 99 1002.3
20260507015830 13 238 0.0 0.0 0.00 1.07 1.07 99 1002.2
20260507015328 13 235 0.0 0.0 0.00 1.07 1.07 99 1002.1
20260507014825 13 227 0.0 0.0 0.00 1.07 1.07 99 1002.5
20260507014321 13 242 0.0 0.0 0.00 1.07 1.07 99 1002.3
20260507013818 13 244 0.0 0.0 0.00 1.07 1.07 99 1002.6
20260507013315 13 244 0.0 0.0 0.00 1.07 1.07 99 1002.6
20260507012813 13 229 0.0 0.0 0.00 1.07 1.07 99 1002.5
20260507012308 13 222 0.0 0.0 0.00 1.07 1.07 99 1002.6
20260507011806 13 229 0.0 0.0 0.00 1.07 1.07 99 1002.5
20260507011302 13 251 0.0 0.0 0.00 1.07 1.07 99 1002.4
20260507010802 13 231 0.0 0.0 0.00 1.07 1.07 99 1002.6
20260507010258 13 241 0.0 0.0 0.00 1.07 1.07 99 1002.6
20260507005755 13 233 0.0 0.0 0.00 1.07 1.07 99 1002.6
20260507005252 13 248 0.0 0.0 0.00 1.07 1.07 99 1002.4
20260507004748 13 236 0.0 0.0 0.00 1.07 1.07 99 1002.7
20260507004246 13 242 0.0 0.0 0.00 1.07 1.07 99 1002.5
20260507003742 13 251 0.0 0.0 0.00 1.07 1.07 99 1002.5
20260507003237 13 249 0.0 0.0 0.00 1.07 1.07 99 1002.4
20260507002734 13 230 0.0 0.0 0.00 1.07 1.07 99 1002.3
20260507002230 13 252 0.0 0.0 0.00 1.07 1.07 99 1002.5
20260507001727 13 245 0.0 0.0 0.00 1.07 1.07 99 1002.6
20260507001224 13 246 0.0 0.0 0.00 1.07 1.07 99 1002.4
20260507000720 13 220 0.0 1.6 0.00 1.07 1.07 99 1002.3
20260507000216 13 256 0.0 0.0 0.00 1.07 1.07 99 1002.5
20260506235713 13 260 1.6 3.2 0.00 1.07 1.07 99 1002.1
20260506235208 13 244 1.6 3.2 0.00 1.07 1.07 99 1002.4
20260506234706 13 198 0.0 0.0 0.00 1.07 1.07 99 1002.2
20260506234203 13 218 0.0 0.0 0.00 1.07 1.07 99 1002.0
20260506233700 13 220 0.0 0.0 0.00 1.07 1.07 99 1002.1
20260506233157 13 241 0.0 0.0 0.00 1.07 1.07 99 1002.3
20260506232653 13 169 0.0 0.0 0.00 1.07 1.07 99 1002.4
20260506232148 13 254 0.0 0.0 0.00 1.07 1.07 99 1002.3
20260506231645 13 237 0.0 0.0 0.00 1.07 1.07 99 1002.4
20260506231144 13 237 0.0 0.0 0.00 1.07 1.07 99 1002.3
20260506230640 13 219 0.0 0.0 0.00 1.07 1.07 99 1002.2
20260506230137 13 218 1.6 1.6 0.00 1.07 1.07 99 1002.5
20260506225634 13 234 0.0 0.0 0.00 1.07 1.07 99 1002.7
20260506225130 13 227 0.0 0.0 0.00 1.07 1.07 99 1002.5
20260506224627 13 231 0.0 0.0 0.00 1.07 1.07 99 1002.6
20260506224124 13 230 0.0 0.0 0.00 1.07 1.07 99 1002.5
20260506223620 13 231 0.0 0.0 0.00 1.07 1.07 99 1002.7
20260506223116 13 238 0.0 0.0 0.00 1.07 1.07 99 1002.7
20260506222614 13 243 0.0 0.0 0.00 1.07 1.07 99 1002.7
20260506222110 13 234 0.0 0.0 0.00 1.07 1.07 99 1002.9
20260506221608 13 200 0.0 0.0 0.00 1.07 1.07 99 1002.9
20260506221106 13 247 0.0 0.0 0.00 1.07 1.07 99 1002.8
20260506220601 13 256 0.0 0.0 0.00 1.07 1.07 99 1002.9
20260506220057 13 239 0.0 0.0 0.13 1.07 1.07 99 1003.1
20260506215554 13 234 0.0 0.0 0.13 1.07 1.07 99 1003.2
20260506215049 14 230 0.0 0.0 0.00 1.04 1.04 99 1003.1
20260506214547 14 246 0.0 0.0 0.18 1.04 1.04 99 1003.3
20260506214044 14 258 0.0 0.0 0.30 1.04 1.04 99 1003.1
20260506213542 14 219 0.0 0.0 0.30 1.02 1.02 99 1003.4
20260506213039 14 247 0.0 1.6 0.61 1.02 1.02 99 1003.5
20260506212535 14 248 0.0 0.0 0.43 0.97 0.97 99 1003.6
20260506212030 14 254 0.0 0.0 0.30 0.91 0.91 99 1003.6
20260506211526 14 255 0.0 0.0 0.66 0.89 0.89 99 1003.6
20260506211024 14 248 0.0 0.0 0.61 0.86 0.86 99 1003.4
20260506210520 14 249 0.0 0.0 0.13 0.79 0.79 99 1003.8
20260506210017 14 250 0.0 0.0 0.00 0.76 0.76 99 1003.4
20260506205514 14 255 0.0 0.0 0.00 0.76 0.76 99 1003.8
20260506205009 14 257 0.0 0.0 0.00 0.76 0.76 99 1003.7
20260506204508 15 251 0.0 0.0 0.18 0.76 0.76 99 1003.6
20260506204004 15 247 0.0 0.0 0.18 0.76 0.76 99 1003.5
20260506203502 14 249 0.0 0.0 0.13 0.74 0.74 99 1003.8
20260506202953 14 255 0.0 0.0 0.13 0.74 0.74 99 1003.7
20260506202450 14 238 0.0 0.0 0.18 0.71 0.71 99 1003.7
20260506201946 14 244 0.0 0.0 0.18 0.71 0.71 99 1003.5
20260506201444 14 242 0.0 0.0 0.13 0.69 0.69 99 1003.6
20260506200940 14 236 0.0 0.0 0.30 0.69 0.69 99 1003.5
20260506200436 14 246 0.0 0.0 0.18 0.66 0.66 98 1004.0
20260506195933 14 237 0.0 0.0 0.13 0.64 0.64 98 1003.9
20260506195430 14 243 0.0 0.0 0.13 0.64 0.64 98 1003.6
20260506194926 14 244 0.0 0.0 0.00 0.61 0.61 98 1004.1
20260506194424 14 248 0.0 0.0 0.00 0.61 0.61 98 1004.0
20260506193921 14 216 0.0 0.0 0.18 0.61 0.61 98 1004.1
20260506193418 14 238 0.0 0.0 0.18 0.61 0.61 98 1003.9
20260506192914 15 253 3.2 3.2 0.18 0.61 0.61 98 1004.0
20260506192411 15 237 0.0 0.0 0.13 0.58 0.58 98 1004.0
20260506191908 15 252 0.0 0.0 0.13 0.58 0.58 98 1003.7
20260506191404 15 236 0.0 0.0 0.18 0.56 0.56 98 1004.1
20260506190902 15 243 0.0 0.0 0.18 0.56 0.56 98 1004.0
20260506190358 15 246 0.0 0.0 0.18 0.56 0.56 98 1004.2
20260506185855 15 233 0.0 0.0 0.18 0.53 0.53 97 1004.1
20260506185352 15 240 0.0 0.0 0.13 0.51 0.51 97 1004.2
20260506184848 15 233 0.0 0.0 0.30 0.51 0.51 97 1004.3
20260506184345 15 226 0.0 0.0 0.30 0.48 0.48 97 1004.3
20260506183843 15 243 1.6 1.6 0.13 0.46 0.46 97 1004.7
20260506183338 15 252 0.0 1.6 1.07 0.43 0.43 97 1004.9
20260506182836 15 275 1.6 1.6 1.37 0.41 0.41 97 1004.9
20260506182333 15 223 0.0 0.0 0.89 0.30 0.30 97 1005.1
20260506181830 15 272 0.0 0.0 0.43 0.18 0.18 96 1004.7
20260506181328 15 251 0.0 0.0 0.61 0.15 0.15 95 1004.2
20260506180825 15 259 0.0 0.0 0.61 0.13 0.13 95 1004.3
20260506180321 16 261 0.0 0.0 0.30 0.05 0.05 94 1004.3
20260506175817 16 266 0.0 0.0 0.13 0.03 0.03 92 1004.0
20260506175314 16 244 0.0 0.0 0.00 0.00 0.00 91 1004.7
20260506174812 16 260 0.0 0.0 0.00 0.00 0.00 88 1004.2
20260506174309 17 246 1.6 1.6 0.00 0.00 0.00 86 1004.5
20260506173806 17 247 1.6 1.6 0.00 0.00 0.00 86 1004.0
20260506173303 17 244 1.6 1.6 0.00 0.00 0.00 82 1004.0
20260506172800 18 237 1.6 1.6 0.00 0.00 0.00 83 1004.6
20260506172256 17 244 0.0 0.0 0.00 0.00 0.00 81 1004.3
20260506171754 17 244 0.0 0.0 0.00 0.00 0.00 82 1004.5
20260506171251 17 227 0.0 0.0 0.00 0.00 0.00 83 1004.5
20260506170749 17 220 3.2 3.2 0.00 0.00 0.00 82 1004.6
20260506170245 17 246 0.0 0.0 0.00 0.00 0.00 83 1004.8
20260506165743 17 244 0.0 0.0 0.00 0.00 0.00 84 1004.9
20260506165240 17 244 0.0 0.0 0.00 0.00 0.00 82 1005.0
20260506164737 17 222 3.2 3.2 0.00 0.00 0.00 82 1005.2
20260506164234 17 246 0.0 0.0 0.00 0.00 0.00 82 1005.5
20260506163731 18 253 0.0 1.6 0.00 0.00 0.00 81 1005.5
20260506163226 18 259 0.0 0.0 0.00 0.00 0.00 80 1005.7
20260506162722 18 238 1.6 1.6 0.00 0.00 0.00 77 1006.3
20260506162220 18 193 3.2 3.2 0.00 0.00 0.00 77 1005.8
20260506161717 18 253 1.6 1.6 0.00 0.00 0.00 79 1006.3
20260506161214 18 246 0.0 1.6 0.00 0.00 0.00 79 1006.2
20260506160712 18 242 0.0 0.0 0.00 0.00 0.00 79 1006.0
20260506160208 18 246 1.6 1.6 0.00 0.00 0.00 79 1006.2
20260506155707 18 247 1.6 1.6 0.00 0.00 0.00 79 1006.2
20260506155203 17 243 1.6 1.6 0.00 0.00 0.00 79 1006.5
20260506153305 17 247 0.0 0.0 0.00 0.00 0.00 79 1006.6
20260506152802 17 255 0.0 0.0 0.00 0.00 0.00 79 1006.7
20260506152259 17 244 0.0 0.0 0.00 0.00 0.00 79 1006.3
20260506151758 17 233 1.6 1.6 0.00 0.00 0.00 79 1006.5
20260506151254 17 250 3.2 3.2 0.00 0.00 0.00 78 1006.5
20260506150751 17 253 1.6 3.2 0.00 0.00 0.00 79 1006.5
20260506150248 17 265 0.0 1.6 0.00 0.00 0.00 79 1006.5
20260506145745 17 213 3.2 3.2 0.00 0.00 0.00 78 1006.5
20260506145241 17 238 1.6 1.6 0.00 0.00 0.00 79 1006.7
20260506144739 17 227 3.2 3.2 0.00 0.00 0.00 79 1006.4
20260506144236 17 251 0.0 0.0 0.00 0.00 0.00 80 1006.2
20260506143733 17 251 1.6 1.6 0.00 0.00 0.00 80 1006.5
20260506143231 17 246 0.0 1.6 0.00 0.00 0.00 80 1006.3
20260506142729 17 236 0.0 0.0 0.00 0.00 0.00 81 1006.3
20260506142227 17 239 1.6 1.6 0.00 0.00 0.00 80 1006.5
20260506141725 17 262 1.6 1.6 0.00 0.00 0.00 80 1006.4
20260506141223 16 244 1.6 1.6 0.00 0.00 0.00 80 1006.5
20260506140720 16 239 1.6 1.6 0.00 0.00 0.00 80 1006.5
20260506140217 16 237 0.0 0.0 0.00 0.00 0.00 81 1006.7
20260506135714 16 242 0.0 0.0 0.00 0.00 0.00 82 1006.9
20260506135210 16 263 0.0 0.0 0.00 0.00 0.00 81 1006.9
20260506134707 16 255 0.0 0.0 0.00 0.00 0.00 81 1006.9
20260506134203 16 234 0.0 0.0 0.00 0.00 0.00 82 1007.2
20260506133700 16 233 0.0 0.0 0.00 0.00 0.00 82 1007.0
20260506133157 16 245 0.0 0.0 0.00 0.00 0.00 82 1006.9
20260506132654 16 245 0.0 1.6 0.00 0.00 0.00 82 1007.2
20260506132151 16 243 0.0 0.0 0.00 0.00 0.00 82 1007.2
20260506131649 16 243 0.0 0.0 0.00 0.00 0.00 82 1007.1
20260506131145 16 265 1.6 1.6 0.00 0.00 0.00 81 1007.0
20260506130642 16 245 0.0 1.6 0.00 0.00 0.00 82 1006.7
20260506130139 16 238 0.0 1.6 0.00 0.00 0.00 81 1006.8
20260506125637 16 236 0.0 1.6 0.00 0.00 0.00 82 1006.8
20260506125134 16 250 0.0 0.0 0.00 0.00 0.00 83 1006.9
20260506124632 16 259 0.0 1.6 0.00 0.00 0.00 82 1006.9
20260506124130 16 243 0.0 1.6 0.00 0.00 0.00 82 1007.1
20260506123627 15 248 1.6 1.6 0.00 0.00 0.00 83 1006.6
20260506123126 15 250 0.0 0.0 0.00 0.00 0.00 84 1007.0
20260506122622 15 242 0.0 0.0 0.00 0.00 0.00 85 1006.9
20260506122120 15 250 0.0 0.0 0.00 0.00 0.00 87 1007.2
20260506121617 14 267 0.0 0.0 0.00 0.00 0.00 89 1007.2
20260506121114 14 267 0.0 0.0 0.00 0.00 0.00 91 1007.0
20260506120612 14 267 0.0 0.0 0.00 0.00 0.00 94 1007.6
20260506120109 13 267 0.0 0.0 0.00 0.00 0.00 95 1007.2
20260506115607 13 267 0.0 0.0 0.00 0.00 0.00 95 1007.4
20260506115105 13 267 0.0 0.0 0.00 0.00 0.00 95 1007.4
20260506114602 13 267 0.0 0.0 0.00 0.00 0.00 96 1007.4
20260506114100 13 267 0.0 0.0 0.00 0.00 0.00 96 1007.3
20260506113558 12 267 0.0 0.0 0.00 0.00 0.00 96 1007.6
20260506113055 12 268 0.0 0.0 0.00 0.00 0.00 96 1007.4
20260506112551 12 267 0.0 0.0 0.00 0.00 0.00 96 1007.6
20260506112049 12 267 0.0 0.0 0.00 0.00 0.00 96 1007.7
20260506111547 12 267 0.0 0.0 0.00 0.00 0.00 96 1007.7
20260506111044 12 267 0.0 0.0 0.00 0.00 0.00 97 1007.6
20260506110541 12 267 0.0 0.0 0.00 0.00 0.00 97 1007.7
20260506110038 12 267 0.0 0.0 0.00 0.00 0.00 97 1007.7
20260506105534 12 268 0.0 0.0 0.00 0.00 0.00 97 1007.8
20260506105032 11 268 0.0 0.0 0.00 0.00 0.00 97 1007.6
20260506104530 11 265 0.0 0.0 0.00 0.00 0.00 97 1007.9
20260506104027 11 264 0.0 0.0 0.00 0.00 0.00 97 1007.6
20260506103524 11 264 0.0 0.0 0.00 0.00 0.00 97 1007.5
20260506103021 11 264 0.0 0.0 0.00 0.00 0.00 97 1007.6
20260506102520 11 265 0.0 0.0 0.00 0.00 0.00 97 1007.4
20260506102017 11 265 0.0 0.0 0.00 0.00 0.00 97 1007.4
20260506101513 11 265 0.0 0.0 0.00 0.00 0.00 97 1007.3
20260506101010 11 265 0.0 0.0 0.00 0.00 0.00 97 1007.4
20260506100508 11 265 0.0 0.0 0.00 0.00 0.00 97 1007.3
20260506100007 11 265 0.0 0.0 0.00 0.00 0.00 97 1007.4
20260506095505 11 265 0.0 0.0 0.00 0.00 0.00 97 1007.2
20260506095000 11 264 0.0 0.0 0.00 0.00 0.00 97 1007.3
20260506094459 11 266 0.0 0.0 0.00 0.00 0.00 96 1007.4
20260506093956 11 260 0.0 0.0 0.00 0.00 0.00 96 1007.4
20260506093454 11 260 0.0 0.0 0.00 0.00 0.00 96 1007.3
20260506092951 11 260 0.0 0.0 0.00 0.00 0.00 96 1007.2
20260506092449 11 261 0.0 0.0 0.00 0.00 0.00 96 1007.4
20260506091945 11 262 0.0 0.0 0.00 0.00 0.00 95 1007.2
20260506091444 12 262 0.0 0.0 0.00 0.00 0.00 95 1007.2
20260506090941 12 270 0.0 0.0 0.00 0.00 0.00 95 1007.0
20260506090439 12 274 0.0 0.0 0.00 0.00 0.00 94 1006.9
20260506085935 12 270 0.0 0.0 0.00 0.00 0.00 94 1007.1
20260506085432 12 289 0.0 0.0 0.00 0.00 0.00 95 1007.2
20260506084928 12 266 0.0 0.0 0.00 0.00 0.00 95 1007.2
20260506084425 12 271 0.0 0.0 0.00 0.00 0.00 95 1006.9
20260506083921 12 282 0.0 0.0 0.00 0.00 0.00 95 1007.0
20260506083419 12 269 0.0 0.0 0.00 0.00 0.00 95 1007.0
20260506082916 12 271 0.0 0.0 0.00 0.00 0.00 95 1006.9
20260506082413 12 253 0.0 0.0 0.00 0.00 0.00 95 1006.7
20260506081908 12 246 0.0 0.0 0.00 0.00 0.00 95 1006.8
20260506081407 12 246 0.0 0.0 0.00 0.00 0.00 96 1006.7
20260506080904 12 243 0.0 0.0 0.00 0.00 0.00 96 1006.7
20260506080401 12 243 0.0 0.0 0.00 0.00 0.00 96 1006.8
20260506073344 12 243 0.0 0.0 0.00 0.00 0.00 97 1006.7
20260506072841 12 243 0.0 0.0 0.00 0.00 0.00 97 1006.6
20260506072339 12 243 0.0 0.0 0.00 0.00 0.00 97 1006.8